This demonstration page uses our WeatherBlox Daily Observations layout. Learn more.

Hourly Observations for December 15, 2019

Temp ( °F °C ) Dew Point ( °F °C ) Humidity (%) Winds ( mph kmh ) Pressure ( in mb ) Visibility ( mi km ) Precip ( " mm )
12:15 am 00:15 Cloudy 22 -5.6 21 -6.3 95 95 ESE 12 19 30.06 1018 7 11.26538 0 0
12:35 am 00:35 Cloudy 22 -5.7 21 -6.3 96 96 ESE 10 17 30.06 1018 10 16.0934 0 0
12:55 am 00:55 Cloudy 22 -5.7 21 -6.3 96 96 ESE 10 17 30.05 1018 10 16.0934 0 0
1:15 am 01:15 Cloudy with Light Snow 22 -5.7 20 -6.5 94 94 ESE 10 17 30.04 1017 5 8.0467 0 0
1:35 am 01:35 Cloudy with Light Snow 21 -6 20 -6.7 95 95 ESE 9 15 30.05 1018 10 16.0934 0 0
1:55 am 01:55 Cloudy with Light Snow 21 -6.3 19 -7.1 94 94 E 7 11 30.07 1018 7 11.26538 0 0
2:15 am 02:15 Cloudy with Light Snow 21 -6.3 19 -7 95 95 E 9 15 30.06 1018 5 8.0467 0 0
2:35 am 02:35 Cloudy with Light Snow 20 -6.5 19 -7.3 94 94 ESE 7 11 30.07 1018 5 8.0467 0.01 0.254
2:55 am 02:55 Cloudy with Light Snow 20 -6.4 19 -7.3 93 93 E 7 11 30.07 1018 7 11.26538 0.01 0.254
3:15 am 03:15 Cloudy with Light Snow 21 -6.3 19 -7.1 94 94 E 7 11 30.07 1018 10 16.0934 0 0
3:35 am 03:35 Cloudy 21 -6.3 19 -7.1 94 94 ESE 7 11 30.07 1018 10 16.0934 0 0
3:55 am 03:55 Cloudy 20 -6.5 19 -7.2 95 95 E 5 7 30.09 1019 10 16.0934 0 0
4:15 am 04:15 Cloudy 21 -6.3 19 -7.1 94 94 E 7 11 30.08 1018 7 11.26538 0 0
4:35 am 04:35 Cloudy 20 -6.5 19 -7.2 95 95 ESE 5 7 30.09 1019 10 16.0934 0 0
4:55 am 04:55 Cloudy 20 -6.5 19 -7.2 95 95 ESE 5 7 30.09 1019 10 16.0934 0 0
5:15 am 05:15 Cloudy 20 -6.4 19 -7.3 93 93 ESE 6 9 30.09 1019 7 11.26538 0 0
5:35 am 05:35 Cloudy with Light Snow 20 -6.4 19 -7.2 94 94 ESE 6 9 30.08 1019 7 11.26538 0 0
5:55 am 05:55 Cloudy with Light Snow 20 -6.5 19 -7.2 95 95 E 7 11 30.07 1018 7 11.26538 0 0
6:15 am 06:15 Cloudy 20 -6.4 19 -7.2 94 94 ESE 7 11 30.07 1018 10 16.0934 0 0
6:35 am 06:35 Cloudy 20 -6.5 19 -7.1 96 96 E 8 13 30.08 1019 10 16.0934 0 0
6:55 am 06:55 Cloudy 20 -6.5 19 -7.2 95 95 E 6 9 30.08 1019 10 16.0934 0 0
7:15 am 07:15 Cloudy 20 -6.5 19 -7.2 95 95 ESE 7 11 30.09 1019 10 16.0934 0 0
7:35 am 07:35 Cloudy 20 -6.4 19 -7.3 93 93 ESE 6 9 30.09 1019 10 16.0934 0 0
7:55 am 07:55 Cloudy 21 -6.3 19 -7.2 93 93 ESE 8 13 30.08 1018 10 16.0934 0 0
8:15 am 08:15 Cloudy 21 -6.3 19 -7.3 93 93 SE 7 11 30.09 1019 10 16.0934 0 0
8:35 am 08:35 Cloudy 21 -6.3 19 -7.2 93 93 SE 10 17 30.08 1018 10 16.0934 0 0
8:55 am 08:55 Cloudy 21 -6.3 19 -7.1 94 94 SE 7 11 30.09 1019 10 16.0934 0 0
9:15 am 09:15 Cloudy 21 -6.2 19 -7.2 93 93 SE 10 17 30.08 1018 10 16.0934 0 0
9:35 am 09:35 Cloudy 21 -6 19 -7.1 92 92 SE 6 9 30.09 1019 10 16.0934 0 0
9:55 am 09:55 Cloudy 21 -6 19 -7.1 92 92 SE 7 11 30.1 1019 10 16.0934 0 0
10:15 am 10:15 Cloudy 22 -5.8 20 -6.9 92 92 SE 7 11 30.1 1019 10 16.0934 0 0
10:35 am 10:35 Cloudy 22 -5.5 20 -6.6 92 92 SE 6 9 30.11 1020 10 16.0934 0 0
10:55 am 10:55 Cloudy 22 -5.5 20 -6.6 92 92 SE 3 6 30.11 1020 10 16.0934 0 0
11:15 am 11:15 Cloudy 22 -5.5 20 -6.8 91 91 Calm 30.11 1020 10 16.0934 0 0
11:35 am 11:35 Cloudy 22 -5.5 20 -6.8 91 91 Calm 30.11 1020 10 16.0934 0 0
11:55 am 11:55 Cloudy 23 -5.2 20 -6.8 89 89 Calm 30.09 1019 10 16.0934 0 0
12:15 pm 12:15 Cloudy 23 -5 20 -6.7 88 88 Calm 30.08 1019 10 16.0934 0 0
12:35 pm 12:35 Cloudy 23 -4.9 20 -6.5 89 89 Calm 30.08 1019 10 16.0934 0 0
12:55 pm 12:55 Cloudy 24 -4.7 21 -6.3 89 89 Calm 30.07 1018 10 16.0934 0 0
1:15 pm 13:15 Cloudy 24 -4.7 21 -6.3 89 89 Calm 30.07 1018 10 16.0934 0 0
1:35 pm 13:35 Cloudy 24 -4.3 21 -6.1 87 87 Calm 30.07 1018 10 16.0934 0 0
1:55 pm 13:55 Cloudy 25 -4.1 21 -6 87 87 Calm 30.05 1018 10 16.0934 0 0
2:15 pm 14:15 Cloudy 25 -4 21 -5.9 87 87 Calm 30.05 1018 10 16.0934 0 0
2:35 pm 14:35 Cloudy 25 -3.7 22 -5.7 86 86 Calm 30.04 1017 10 16.0934 0 0
2:55 pm 14:55 Cloudy 26 -3.5 22 -5.5 86 86 Calm 30.04 1017 10 16.0934 0 0
3:15 pm 15:15 Cloudy 26 -3.5 22 -5.4 87 87 Calm 30.06 1018 10 16.0934 0 0
3:35 pm 15:35 Cloudy 26 -3.2 23 -5.2 86 86 Calm 30.06 1018 10 16.0934 0 0
3:55 pm 15:55 Cloudy 26 -3.5 22 -5.4 87 87 Calm 30.08 1019 10 16.0934 0 0
4:15 pm 16:15 Cloudy 26 -3.2 23 -5 88 88 NNW 3 6 30.08 1018 10 16.0934 0 0
4:35 pm 16:35 Cloudy 26 -3.4 23 -5.1 88 88 Calm 30.09 1019 10 16.0934 0 0
4:55 pm 16:55 Cloudy 26 -3.5 23 -5.2 88 88 Calm 30.1 1019 10 16.0934 0 0
5:15 pm 17:15 Cloudy 26 -3.5 23 -5.1 89 89 Calm 30.1 1019 10 16.0934 0 0
5:35 pm 17:35 Cloudy 26 -3.6 23 -5.2 89 89 Calm 30.11 1020 10 16.0934 0 0
5:55 pm 17:55 Partly Cloudy 25 -3.8 22 -5.4 89 89 Calm 30.11 1020 10 16.0934 0 0
6:15 pm 18:15 Clear 23 -5.1 21 -6 93 93 Calm 30.12 1020 10 16.0934 0 0
6:35 pm 18:35 Clear 22 -5.8 20 -6.4 96 96 Calm 30.14 1021 7 11.26538 0 0
6:55 pm 18:55 Clear 21 -6 20 -6.5 96 96 Calm 30.14 1021 7 11.26538 0 0
7:15 pm 19:15 Partly Cloudy with Mist and Fog 20 -6.9 19 -7.1 98 98 Calm 30.16 1021 5 8.0467 0 0
7:35 pm 19:35 Mostly Cloudy with Mist and Fog 19 -7.4 18 -7.7 98 98 Calm 30.17 1022 5 8.0467 0 0
7:55 pm 19:55 Cloudy with Mist and Fog 18 -7.9 17 -8.4 96 96 Calm 30.18 1022 4 6.43736 0 0
8:15 pm 20:15 Partly Cloudy with Mist and Fog 18 -7.9 17 -8.4 96 96 Calm 30.18 1022 3 4.82802 0 0
8:35 pm 20:35 Clear with Mist and Fog 18 -8 17 -8.5 96 96 Calm 30.18 1022 5 8.0467 0 0
8:55 pm 20:55 Clear with Mist and Fog 16 -9 15 -9.6 95 95 Calm 30.19 1022 5 8.0467 0 0
9:15 pm 21:15 Clear with Mist and Fog 19 -7.5 18 -7.9 97 97 Calm 30.18 1022 4 6.43736 0 0
9:35 pm 21:35 Partly Cloudy with Mist and Fog 19 -7.1 19 -7.5 97 97 S 3 6 30.18 1022 5 8.0467 0 0
9:55 pm 21:55 Partly Cloudy 17 -8.1 17 -8.6 96 96 Calm 30.2 1023 7 11.26538 0 0
10:15 pm 22:15 Mostly Cloudy 18 -7.6 18 -8 97 97 Calm 30.21 1023 7 11.26538 0 0
10:35 pm 22:35 Partly Cloudy 18 -7.6 17 -8.1 96 96 Calm 30.21 1023 7 11.26538 0 0
10:55 pm 22:55 Clear 16 -9.1 15 -9.7 95 95 SSE 3 6 30.23 1024 7 11.26538 0 0
11:15 pm 23:15 Clear 15 -9.6 14 -10.2 95 95 Calm 30.23 1024 7 11.26538 0 0
11:35 pm 23:35 Clear 13 -10.3 12 -11 95 95 Calm 30.22 1023 7 11.26538 0 0
11:55 pm 23:55 Clear with Mist and Fog 15 -9.6 14 -10.1 96 96 Calm 30.21 1023 5 8.0467 0 0

Powered by AerisWeather